Time,TemperatureF,DewpointF,PressureIn,WindDirection,WindDirectionDegrees,WindSpeedMPH,WindSpeedGustMPH,Humidity,HourlyPrecipIn,Conditions,Clouds,dailyrainin,SoftwareType,DateUTC
2013-06-07 00:03:00,61.0,58.0,30.00,SSE,159,2.0,9.0,90,0.04,,,0.10,,2013-06-07 04:03:00,
2013-06-07 00:12:00,61.0,58.0,30.00,SSE,159,2.0,9.0,90,0.04,,,0.10,,2013-06-07 04:12:00,
2013-06-07 00:23:00,61.0,58.0,30.00,SE,124,1.0,7.0,90,0.03,,,0.11,,2013-06-07 04:23:00,
2013-06-07 00:33:00,61.0,58.0,29.99,South,181,1.0,7.0,91,0.03,,,0.12,,2013-06-07 04:33:00,
2013-06-07 00:42:00,61.0,58.0,29.99,South,181,1.0,7.0,91,0.03,,,0.12,,2013-06-07 04:42:00,
2013-06-07 00:53:00,61.0,58.0,29.98,SSW,197,1.0,6.0,91,0.04,,,0.13,,2013-06-07 04:53:00,
2013-06-07 01:03:00,61.0,58.0,29.98,SE,131,2.0,6.0,91,0.04,,,0.14,,2013-06-07 05:03:00,
2013-06-07 01:12:00,61.0,58.0,29.98,SE,131,2.0,6.0,91,0.04,,,0.14,,2013-06-07 05:12:00,
2013-06-07 01:22:00,61.0,58.0,29.98,SE,132,4.0,8.0,91,0.03,,,0.14,,2013-06-07 05:22:00,
2013-06-07 01:32:00,61.0,58.0,29.97,SSE,165,1.0,6.0,90,0.02,,,0.14,,2013-06-07 05:32:00,
2013-06-07 01:42:00,61.0,58.0,29.97,SSE,165,1.0,6.0,90,0.02,,,0.14,,2013-06-07 05:42:00,
2013-06-07 01:52:00,61.0,58.0,29.96,SSE,148,1.0,4.0,90,0.02,,,0.15,,2013-06-07 05:52:00,
2013-06-07 02:02:00,61.0,58.0,29.96,SSE,162,2.0,5.0,91,0.02,,,0.16,,2013-06-07 06:02:00,
2013-06-07 02:12:00,61.0,58.0,29.96,SSE,162,2.0,5.0,91,0.02,,,0.16,,2013-06-07 06:12:00,
2013-06-07 02:22:00,61.0,58.0,29.96,SSE,161,0.0,4.0,91,0.02,,,0.16,,2013-06-07 06:22:00,
2013-06-07 02:32:00,61.0,58.0,29.95,ESE,113,1.0,5.0,91,0.02,,,0.16,,2013-06-07 06:32:00,
2013-06-07 02:42:00,61.0,58.0,29.95,ESE,113,1.0,5.0,91,0.02,,,0.16,,2013-06-07 06:42:00,
2013-06-07 02:52:00,61.0,59.0,29.95,SSE,159,2.0,7.0,92,0.01,,,0.16,,2013-06-07 06:52:00,
2013-06-07 03:02:00,61.0,59.0,29.95,SSE,165,2.0,8.0,92,0.01,,,0.17,,2013-06-07 07:02:00,
2013-06-07 03:12:00,61.0,59.0,29.95,SSE,165,2.0,8.0,92,0.01,,,0.17,,2013-06-07 07:12:00,
2013-06-07 03:22:00,61.0,59.0,29.95,SE,131,0.0,6.0,92,0.01,,,0.17,,2013-06-07 07:22:00,
2013-06-07 03:32:00,61.0,59.0,29.94,SE,143,2.0,5.0,93,0.03,,,0.19,,2013-06-07 07:32:00,
2013-06-07 03:42:00,61.0,59.0,29.94,SE,143,2.0,5.0,93,0.03,,,0.19,,2013-06-07 07:42:00,
2013-06-07 03:52:00,61.0,59.0,29.93,SE,141,2.0,5.0,93,0.04,,,0.20,,2013-06-07 07:52:00,
2013-06-07 04:02:00,61.0,59.0,29.93,ESE,102,2.0,6.0,94,0.07,,,0.24,,2013-06-07 08:02:00,
2013-06-07 04:12:00,61.0,59.0,29.93,ESE,102,2.0,6.0,94,0.07,,,0.24,,2013-06-07 08:12:00,
2013-06-07 04:22:00,61.0,59.0,29.93,SSE,153,3.0,10.0,94,0.12,,,0.28,,2013-06-07 08:22:00,
2013-06-07 04:32:00,61.0,59.0,29.92,SE,145,1.0,8.0,94,0.17,,,0.36,,2013-06-07 08:32:00,
2013-06-07 04:43:00,61.0,59.0,29.92,SE,145,1.0,8.0,94,0.17,,,0.36,,2013-06-07 08:43:00,
2013-06-07 04:52:00,61.0,59.0,29.92,SSW,194,3.0,8.0,94,0.21,,,0.41,,2013-06-07 08:52:00,
2013-06-07 05:02:00,61.0,59.0,29.92,SSE,167,2.0,6.0,94,0.19,,,0.43,,2013-06-07 09:02:00,
2013-06-07 05:12:00,61.0,59.0,29.92,SSE,167,2.0,6.0,94,0.19,,,0.43,,2013-06-07 09:12:00,
2013-06-07 05:22:00,61.0,59.0,29.91,South,170,3.0,8.0,94,0.17,,,0.47,,2013-06-07 09:22:00,
2013-06-07 05:32:00,60.0,58.0,29.91,SE,138,2.0,9.0,94,0.12,,,0.49,,2013-06-07 09:32:00,
2013-06-07 05:43:00,60.0,58.0,29.91,SE,138,2.0,9.0,94,0.12,,,0.49,,2013-06-07 09:43:00,
2013-06-07 05:53:00,60.0,58.0,29.91,SSE,163,4.0,9.0,94,0.11,,,0.52,,2013-06-07 09:53:00,
2013-06-07 06:03:00,60.0,59.0,29.91,South,169,1.0,6.0,95,0.11,,,0.54,,2013-06-07 10:03:00,
2013-06-07 06:13:00,60.0,59.0,29.91,South,169,1.0,6.0,95,0.11,,,0.54,,2013-06-07 10:13:00,
2013-06-07 06:23:00,60.0,59.0,29.91,SSE,167,0.0,6.0,95,0.08,,,0.55,,2013-06-07 10:23:00,
2013-06-07 06:33:00,60.0,59.0,29.91,SSE,158,1.0,6.0,95,0.07,,,0.56,,2013-06-07 10:33:00,
2013-06-07 06:42:00,60.0,59.0,29.91,SSE,158,1.0,6.0,95,0.07,,,0.56,,2013-06-07 10:42:00,
2013-06-07 06:53:00,61.0,60.0,29.91,SSE,162,2.0,7.0,95,0.03,,,0.56,,2013-06-07 10:53:00,
2013-06-07 07:02:00,61.0,60.0,29.91,SSE,158,1.0,8.0,95,0.04,,,0.57,,2013-06-07 11:02:00,
2013-06-07 07:12:00,61.0,60.0,29.91,SSE,158,1.0,8.0,95,0.04,,,0.57,,2013-06-07 11:12:00,
2013-06-07 07:22:00,61.0,60.0,29.91,ESE,105,1.0,4.0,95,0.06,,,0.61,,2013-06-07 11:22:00,
2013-06-07 07:32:00,61.0,60.0,29.91,SW,217,2.0,4.0,95,0.08,,,0.64,,2013-06-07 11:32:00,
2013-06-07 07:42:00,61.0,60.0,29.91,SW,217,2.0,4.0,95,0.08,,,0.64,,2013-06-07 11:42:00,
2013-06-07 07:52:00,61.0,60.0,29.89,SE,129,1.0,4.0,95,0.11,,,0.67,,2013-06-07 11:52:00,
2013-06-07 08:02:00,61.0,60.0,29.89,ESE,114,0.0,6.0,95,0.13,,,0.71,,2013-06-07 12:02:00,
2013-06-07 08:13:00,61.0,60.0,29.89,ESE,114,0.0,6.0,95,0.13,,,0.71,,2013-06-07 12:13:00,
2013-06-07 08:22:00,61.0,60.0,29.88,SSE,159,0.0,7.0,95,0.13,,,0.75,,2013-06-07 12:22:00,
2013-06-07 08:32:00,61.0,60.0,29.89,ENE,72,1.0,4.0,95,0.13,,,0.78,,2013-06-07 12:32:00,
2013-06-07 08:42:00,61.0,60.0,29.89,ENE,72,1.0,4.0,95,0.13,,,0.78,,2013-06-07 12:42:00,
2013-06-07 08:52:00,62.0,61.0,29.88,SE,143,1.0,6.0,95,0.11,,,0.79,,2013-06-07 12:52:00,
2013-06-07 09:02:00,62.0,61.0,29.88,SSW,204,2.0,9.0,95,0.10,,,0.82,,2013-06-07 13:02:00,
2013-06-07 09:13:00,62.0,61.0,29.88,SSW,204,2.0,9.0,95,0.10,,,0.82,,2013-06-07 13:13:00,
2013-06-07 09:22:00,62.0,61.0,29.88,NNE,33,2.0,7.0,95,0.14,,,0.89,,2013-06-07 13:22:00,
2013-06-07 09:32:00,62.0,61.0,29.88,SE,143,1.0,6.0,95,0.15,,,0.93,,2013-06-07 13:32:00,
2013-06-07 09:43:00,62.0,61.0,29.88,SE,143,1.0,6.0,95,0.15,,,0.93,,2013-06-07 13:43:00,
2013-06-07 09:52:00,62.0,61.0,29.88,SSW,193,1.0,10.0,95,0.22,,,1.01,,2013-06-07 13:52:00,
2013-06-07 10:02:00,62.0,61.0,29.88,SSE,157,2.0,12.0,95,0.26,,,1.08,,2013-06-07 14:02:00,
2013-06-07 10:13:00,62.0,61.0,29.88,SSE,157,2.0,12.0,95,0.26,,,1.08,,2013-06-07 14:13:00,
2013-06-07 10:23:00,62.0,61.0,29.87,SSE,157,1.0,7.0,95,0.26,,,1.14,,2013-06-07 14:23:00,
2013-06-07 10:33:00,62.0,61.0,29.86,South,171,2.0,11.0,95,0.24,,,1.18,,2013-06-07 14:33:00,
2013-06-07 10:42:00,62.0,61.0,29.86,South,171,2.0,11.0,95,0.24,,,1.18,,2013-06-07 14:42:00,
2013-06-07 10:52:00,62.0,61.0,29.86,SE,146,2.0,12.0,95,0.19,,,1.21,,2013-06-07 14:52:00,
2013-06-07 11:03:00,62.0,60.0,29.86,SSW,195,2.0,7.0,94,0.15,,,1.23,,2013-06-07 15:03:00,
2013-06-07 11:12:00,62.0,60.0,29.86,SSW,195,2.0,7.0,94,0.15,,,1.23,,2013-06-07 15:12:00,
2013-06-07 11:23:00,62.0,60.0,29.85,SSE,167,1.0,8.0,94,0.10,,,1.25,,2013-06-07 15:23:00,
2013-06-07 11:33:00,62.0,60.0,29.85,SE,143,1.0,7.0,94,0.09,,,1.27,,2013-06-07 15:33:00,
2013-06-07 11:43:00,62.0,60.0,29.85,SE,143,1.0,7.0,94,0.09,,,1.27,,2013-06-07 15:43:00,
2013-06-07 11:53:00,62.0,60.0,29.85,SE,139,1.0,9.0,94,0.08,,,1.29,,2013-06-07 15:53:00,
2013-06-07 12:03:00,62.0,60.0,29.85,SE,124,1.0,6.0,94,0.07,,,1.30,,2013-06-07 16:03:00,
2013-06-07 12:13:00,62.0,60.0,29.85,SE,124,1.0,6.0,94,0.07,,,1.30,,2013-06-07 16:13:00,
2013-06-07 12:22:00,62.0,60.0,29.86,SSE,148,3.0,7.0,94,0.13,,,1.38,,2013-06-07 16:22:00,
2013-06-07 12:33:00,62.0,60.0,29.85,East,88,2.0,9.0,94,0.17,,,1.44,,2013-06-07 16:33:00,
2013-06-07 12:43:00,62.0,60.0,29.85,East,88,2.0,9.0,94,0.17,,,1.44,,2013-06-07 16:43:00,
2013-06-07 12:53:00,62.0,60.0,29.85,SW,232,1.0,5.0,94,0.18,,,1.47,,2013-06-07 16:53:00,
2013-06-07 13:03:00,62.0,60.0,29.84,ESE,108,2.0,7.0,94,0.21,,,1.51,,2013-06-07 17:03:00,
2013-06-07 13:13:00,62.0,60.0,29.84,ESE,108,2.0,7.0,94,0.21,,,1.51,,2013-06-07 17:13:00,
2013-06-07 13:23:00,62.0,61.0,29.84,SSE,159,1.0,7.0,95,0.26,,,1.64,,2013-06-07 17:23:00,
2013-06-07 13:32:00,62.0,61.0,29.84,SSW,203,1.0,5.0,95,0.24,,,1.68,,2013-06-07 17:32:00,
2013-06-07 13:43:00,62.0,61.0,29.84,SSW,203,1.0,5.0,95,0.24,,,1.68,,2013-06-07 17:43:00,
2013-06-07 13:53:00,62.0,61.0,29.83,SE,127,0.0,6.0,95,0.25,,,1.73,,2013-06-07 17:53:00,
2013-06-07 14:08:00,62.0,61.0,29.83,SE,124,0.0,2.0,95,0.26,,,1.77,,2013-06-07 18:08:00,
2013-06-07 14:20:00,62.0,61.0,29.83,SE,124,0.0,2.0,95,0.26,,,1.77,,2013-06-07 18:20:00,
2013-06-07 14:36:00,62.0,61.0,29.82,SSW,212,1.0,4.0,95,0.16,,,1.85,,2013-06-07 18:36:00,
2013-06-07 14:45:00,62.0,61.0,29.82,SSW,212,1.0,4.0,95,0.16,,,1.85,,2013-06-07 18:45:00,
2013-06-07 15:01:00,63.0,62.0,29.82,SE,127,1.0,3.0,95,0.16,,,1.90,,2013-06-07 19:01:00,
2013-06-07 15:08:00,63.0,62.0,29.81,ESE,107,1.0,4.0,95,0.16,,,1.93,,2013-06-07 19:08:00,
2013-06-07 15:15:00,63.0,62.0,29.81,ESE,107,1.0,4.0,95,0.16,,,1.93,,2013-06-07 19:15:00,
2013-06-07 15:29:00,63.0,62.0,29.80,NW,307,1.0,6.0,95,0.13,,,1.95,,2013-06-07 19:29:00,
2013-06-07 15:37:00,63.0,62.0,29.79,NE,53,1.0,4.0,95,0.13,,,1.98,,2013-06-07 19:37:00,
2013-06-07 15:49:00,63.0,62.0,29.79,NE,53,1.0,4.0,95,0.13,,,1.98,,2013-06-07 19:49:00,
2013-06-07 15:59:00,63.0,62.0,29.79,North,352,1.0,5.0,95,0.14,,,2.04,,2013-06-07 19:59:00,
2013-06-07 16:17:00,63.0,62.0,29.78,ESE,109,1.0,3.0,95,0.15,,,2.08,,2013-06-07 20:17:00,
2013-06-07 16:25:00,62.0,61.0,29.77,ENE,59,1.0,5.0,95,0.17,,,2.12,,2013-06-07 20:25:00,
2013-06-07 16:38:00,61.0,60.0,29.75,NNE,16,4.0,8.0,95,0.21,,,2.19,,2013-06-07 20:38:00,
2013-06-07 16:48:00,61.0,60.0,29.75,NNE,16,4.0,8.0,95,0.21,,,2.19,,2013-06-07 20:48:00,
2013-06-07 16:56:00,61.0,60.0,29.74,NE,40,4.0,9.0,95,0.21,,,2.25,,2013-06-07 20:56:00,
2013-06-07 17:05:00,61.0,60.0,29.74,NE,40,4.0,9.0,95,0.21,,,2.25,,2013-06-07 21:05:00,
2013-06-07 17:20:00,61.0,60.0,29.74,NE,40,4.0,9.0,95,0.21,,,2.25,,2013-06-07 21:20:00,
2013-06-07 17:28:00,60.0,59.0,29.73,East,96,2.0,8.0,95,0.23,,,2.31,,2013-06-07 21:28:00,
2013-06-07 17:40:00,60.0,59.0,29.73,NNE,32,3.0,10.0,95,0.25,,,2.38,,2013-06-07 21:40:00,
2013-06-07 17:46:00,60.0,59.0,29.73,NNE,32,3.0,10.0,95,0.25,,,2.38,,2013-06-07 21:46:00,
2013-06-07 18:09:00,60.0,59.0,29.72,East,79,2.0,7.0,95,0.24,,,2.50,,2013-06-07 22:09:00,
2013-06-07 18:24:00,60.0,59.0,29.72,East,79,2.0,7.0,95,0.24,,,2.50,,2013-06-07 22:24:00,
2013-06-07 18:39:00,60.0,59.0,29.71,NNW,342,3.0,10.0,95,0.12,,,2.50,,2013-06-07 22:39:00,
2013-06-07 18:49:00,60.0,59.0,29.71,NNW,342,3.0,10.0,95,0.12,,,2.50,,2013-06-07 22:49:00,
2013-06-07 18:50:00,59.0,58.0,29.72,East,81,3.0,12.0,95,0.20,,,2.70,,2013-06-07 22:50:00,
2013-06-07 19:10:00,59.0,58.0,29.71,NNE,27,3.0,11.0,95,0.08,,,2.58,,2013-06-07 23:10:00,
2013-06-07 19:20:00,59.0,58.0,29.71,NNE,27,3.0,11.0,95,0.08,,,2.58,,2013-06-07 23:20:00,
2013-06-07 19:31:00,59.0,58.0,29.72,East,81,3.0,12.0,95,0.20,,,2.70,,2013-06-07 23:31:00,
2013-06-07 19:39:00,59.0,58.0,29.72,East,81,3.0,12.0,95,0.20,,,2.70,,2013-06-07 23:39:00,
2013-06-07 19:57:00,58.0,57.0,29.70,NNE,19,2.0,11.0,95,0.38,,,2.91,,2013-06-07 23:57:00,
2013-06-07 20:14:00,58.0,57.0,29.69,ENE,68,3.0,8.0,95,0.60,,,3.18,,2013-06-08 00:14:00,
2013-06-07 20:30:00,59.0,58.0,29.70,WNW,300,1.0,8.0,96,0.51,,,3.21,,2013-06-08 00:30:00,
2013-06-07 20:45:00,59.0,58.0,29.69,NNE,29,1.0,8.0,96,0.39,,,3.26,,2013-06-08 00:45:00,
2013-06-07 20:56:00,59.0,58.0,29.68,WNW,303,2.0,7.0,96,0.39,,,3.30,,2013-06-08 00:56:00,
2013-06-07 21:08:00,59.0,58.0,29.67,East,81,3.0,9.0,96,0.28,,,3.46,,2013-06-08 01:08:00,
2013-06-07 21:20:00,59.0,58.0,29.67,East,81,3.0,9.0,96,0.28,,,3.46,,2013-06-08 01:20:00,
2013-06-07 21:29:00,59.0,58.0,29.67,ENE,70,2.0,8.0,96,0.49,,,3.70,,2013-06-08 01:29:00,
2013-06-07 21:39:00,59.0,58.0,29.66,SW,219,2.0,7.0,96,0.56,,,3.82,,2013-06-08 01:39:00,
2013-06-07 21:46:00,59.0,58.0,29.66,SW,219,2.0,7.0,96,0.56,,,3.82,,2013-06-08 01:46:00,
2013-06-07 22:11:00,60.0,59.0,29.66,ENE,77,2.0,9.0,96,0.40,,,3.88,,2013-06-08 02:11:00,
2013-06-07 22:29:00,60.0,59.0,29.66,SSW,212,1.0,8.0,96,0.24,,,3.97,,2013-06-08 02:29:00,
2013-06-07 22:37:00,60.0,59.0,29.65,WSW,253,1.0,6.0,96,0.20,,,3.99,,2013-06-08 02:37:00,
2013-06-07 22:49:00,60.0,59.0,29.65,WSW,253,1.0,6.0,96,0.20,,,3.99,,2013-06-08 02:49:00,
2013-06-07 22:54:00,60.0,59.0,29.65,ESE,111,2.0,7.0,96,0.28,,,4.08,,2013-06-08 02:54:00,
2013-06-07 23:11:00,60.0,59.0,29.64,NNE,27,3.0,10.0,96,0.26,,,4.12,,2013-06-08 03:11:00,
2013-06-07 23:19:00,60.0,59.0,29.64,NNE,27,3.0,10.0,96,0.26,,,4.12,,2013-06-08 03:19:00,
2013-06-07 23:27:00,60.0,59.0,29.63,NE,36,3.0,10.0,96,0.23,,,4.17,,2013-06-08 03:27:00,
2013-06-07 23:38:00,60.0,59.0,29.63,NW,321,3.0,10.0,96,0.20,,,4.15,,2013-06-08 03:38:00,
2013-06-07 23:52:00,60.0,59.0,29.63,NW,321,3.0,10.0,96,0.20,,,4.15,,2013-06-08 03:52:00,